sat.trackr.live / text

‹ back to catalog

ONEWEB-0542

NORAD 54646 · 2022-166E

PAYLOAD ACTIVE UNKNOWN

§ Identity

Operator
Country
UK
Launch date
2022-12-08
Launch site
AFETR
Launch vehicle
Mass (kg)
RCS (m²)

Purposes: comms

External: N2YO · Heavens-Above · Gunter

§ Orbital elements

Epoch: 2026-09-20T03:34:08.270112Z

Period
108.94 min
Inclination
87.9287°
Eccentricity
0.0002414
Mean motion
13.21829566 rev/d
Perigee alt
1,175.9 km
Apogee alt
1,179.6 km
Semi-major
7,555.9 km
B*
-1.7371e-3
RAAN
225.0745°
Arg perigee
82.3511°
Mean anomaly
277.7897°
Rev number
18,408

§ Raw data

ONEWEB-05421 54646U 22166E   26263.14870683 -.00000704  00000+0 -17371-2 0  99912 54646  87.9287 225.0745 0002414  82.3511 277.7897 13.21829566184085

JSON: /api/v1/satellites/54646 · /tle

For live sub-satellite position, see the globe view (requires WebGL).

§ Visibility from observer

Set your observer location to see the next 7 days of passes ≥ 10°. The values pass through the URL so the page stays shareable.

No JS? Fill the form by hand. The geolocation button needs JavaScript.